Regional Weather Roundup
Issued by NWS

Home | Current Version | Previous Version | Text Only | Print | Product List | Glossary On
Versions: 1 2 3 4 5 6 7 8 9 10 11 12 13 14 15 16 17 18 19 20 21 22 23 24 25 26 27 28 29 30 31 32 33 34 35 36 37 38 39 40 41 42 43 44 45 46 47 48 49 50
000
ASUS44 KBMX 280010
RWRAL

ALABAMA REGIONAL WEATHER ROUNDUP
NATIONAL WEATHER SERVICE BIRMINGHAM AL
700 PM CDT WED AUG 27 2014

NOTE: "FAIR" INDICATES FEW OR NO CLOUDS BELOW 12,000 FEET
WITH NO SIGNIFICANT WEATHER AND/OR OBSTRUCTIONS TO VISIBILITY.

THE REMARK "TC" DENOTES TEMPERATURE IN DEGREES CELSIUS.

ALZ001>011-014-016>018-020-280100-
NORTH ALABAMA

CITY           SKY/WX    TMP DP  RH WIND       PRES   REMARKS
MUSCLE SHOALS  CLEAR     85  69  58 NW5       30.02F
6HR MIN TEMP:  85; 6HR MAX TEMP:  92;

HUNTSVILLE     PTCLDY    86  65  49 S5        30.01F
6HR MIN TEMP:  86; 6HR MAX TEMP:  93;

DECATUR        CLEAR     86  63  45 S3        30.02S
6HR MIN TEMP:  86; 6HR MAX TEMP:  93;

HALEYVILLE     FAIR      84  66  54 CALM      30.06S
6HR MIN TEMP:  84; 6HR MAX TEMP:  92;

GADSDEN        CLEAR     86  57  37 N3        30.01S
6HR MIN TEMP:  86; 6HR MAX TEMP:  91;

$$

ALZ012-013-022-023-030>036-040>044-280100-
WEST CENTRAL ALABAMA

CITY           SKY/WX    TMP DP  RH WIND       PRES   REMARKS
TUSCALOOSA     PTCLDY    90  56  31 NW5       29.98S
6HR MIN TEMP:  90; 6HR MAX TEMP:  96;

$$

ALZ015-024>027-033>036-040>044-280100-
CENTRAL ALABAMA

CITY           SKY/WX    TMP DP  RH WIND       PRES   REMARKS
BIRMINGHAM     PTCLDY    85  57  38 CALM      30.03S
6HR MIN TEMP:  85; 6HR MAX TEMP:  92;

MONTGOMERY     CLEAR     86  59  39 NE5       30.00S
6HR MIN TEMP:  86; 6HR MAX TEMP:  93;

SHELBY CO ARPT CLEAR     87  54  32 CALM      30.01F
6HR MIN TEMP:  87; 6HR MAX TEMP:  93;

MAXWELL AFB    CLEAR     87  59  39 E3        29.99F
6HR MIN TEMP:  87; 6HR MAX TEMP:  91; 6HR PCP: TRACE;

GREENVILLE     FAIR      83  66  56 E5        30.00
6HR MIN TEMP:  83; 6HR MAX TEMP:  93;

$$

ALZ019-021-028-029-037-038-045>048-280100-
EAST CENTRAL ALABAMA

CITY           SKY/WX    TMP DP  RH WIND       PRES   REMARKS
ANNISTON       CLEAR     80  64  58 CALM      30.02S
6HR MIN TEMP:  80; 6HR MAX TEMP:  92;

ALEXANDER CITY CLEAR     83  68  60 CALM      30.02S
6HR MIN TEMP:  83; 6HR MAX TEMP:  93;

AUBURN         CLEAR     82  57  42 N5        30.06S
6HR MIN TEMP:  82; 6HR MAX TEMP:  90;

$$

ALZ051>064-280100-
SOUTHWEST ALABAMA

CITY           SKY/WX    TMP DP  RH WIND       PRES   REMARKS
MOBILE         MOCLDY    80  76  87 CALM      29.99S
6HR MIN TEMP:  79; 6HR MAX TEMP:  93; 6HR PCP:  0.01;

BROOKLEY FIELD MOCLDY    84  73  69 S5        29.99S HX  90
6HR MIN TEMP:  84; 6HR MAX TEMP:  92;

EVERGREEN      PTCLDY    86  66  51 NE5       29.98S
6HR MIN TEMP:  86; 6HR MAX TEMP:  97;

$$

ALZ049-050-065>069-280100-
SOUTHEAST ALABAMA

CITY           SKY/WX    TMP DP  RH WIND       PRES   REMARKS
DOTHAN         CLEAR     84  61  45 N5        30.02R
6HR MIN TEMP:  84; 6HR MAX TEMP:  94;

OZARK          CLEAR     87  62  43 N8        29.98S
6HR MIN TEMP:  87; 6HR MAX TEMP:  94;

TROY           CLEAR     84  62  47 NE5       30.01S
6HR MIN TEMP:  84; 6HR MAX TEMP:  93;

EUFAULA        FAIR      80  67  64 CALM      29.98S
6HR MIN TEMP:  80; 6HR MAX TEMP:  94;

$$



USA.gov is the U.S. government's official web portal to all federal, state and local government web resources and services.